Temp
84 89 90 83 68 71 60 64 69 71 82 89 92 84 80 83 77 65 90 91 91 88 86 86 83 83 83 83 83 83 83 83 83 83 83 83 83 84 84 84 83 84 84 84 84 84 84 84 84
92 95 90 80 65 58 57 67 63 68 79 91 88 86 83 78 87 85 86 91 92 90 90 87 82 83 83 83 83 84 84 83 83 83 83 83 83 83 84 84 84 84 84 84 84 84 84 84 84
87 94 77 70 71 57 58 66 66 73 84 89 83 85 84 80 88 88 91 95 94 92 90 85 83 83 83 83 83 83 83 83 83 83 83 83 84 84 84 84 84 83 84 84 84 84 84 84 84
87 82 79 64 65 68 70 67 67 75 83 84 86 79 89 94 89 94 97 97 95 92 90 84 83 83 84 83 83 84 84 83 83 83 84 83 83 84 84 84 84 84 84 84 84 84 85 84 84
87 78 64 66 66 70 72 67 67 74 79 78 83 79 82 90 95 97 97 97 92 90 88 86 83 83 84 83 83 83 83 83 83 84 84 84 84 85 84 84 84 84 84 84 84 84 84 84 84
71 73 64 63 65 70 70 69 72 76 75 81 81 81 82 94 94 96 95 92 94 91 90 87 84 83 84 83 83 83 83 83 83 84 84 84 84 84 84 84 85 85 85 85 84 84 83 83 83
73 69 66 66 67 67 67 73 75 80 80 79 86 77 85 90 96 98 93 95 92 94 90 87 87 84 84 83 84 84 84 84 84 84 84 84 84 84 84 84 85 85 85 85 84 84 83 83 83
79 71 67 70 70 66 72 76 80 81 77 91 90 77 79 90 97 98 95 88 95 91 92 90 88 87 85 85 84 84 84 84 84 84 84 84 85 85 84 83 85 85 85 85 84 84 83 83 83
90 72 69 70 74 72 76 76 84 87 80 82 88 88 91 95 98 95 93 89 80 88 89 94 90 85 83 84 85 84 84 84 84 84 84 83 84 86 86 84 85 85 85 85 84 83 83 83 83
71 67 75 82 81 75 78 79 82 82 79 82 81 91 94 95 95 92 90 84 85 88 92 91 89 88 88 91 84 83 86 86 86 86 76 77 86 86 87 85 85 85 85 85 84 84 84 84 85
67 70 83 85 86 84 82 80 83 73 75 83 81 86 91 93 93 93 93 92 93 92 91 89 88 86 87 87 87 86 85 83 87 86 83 82 86 84 86 84 85 83 84 81 84 84 83 83 84
77 86 89 87 88 84 79 82 83 76 77 86 89 90 91 91 91 94 93 94 94 89 89 88 87 82 82 90 89 84 89 88 84 84 86 83 85 82 74 85 82 83 75 73 75 85 86 88 87
69 78 88 94 88 86 84 83 77 74 83 89 90 90 90 92 91 95 96 94 95 92 89 87 85 84 85 82 86 84 84 88 88 85 87 86 84 83 82 77 84 79 78 76 80 80 86 84 87
88 79 89 93 91 91 85 77 81 72 85 87 88 88 91 91 92 93 94 92 93 93 88 88 87 84 90 82 80 81 78 84 85 85 87 83 83 84 85 79 85 84 78 84 79 81 83 83 86
92 81 89 91 92 87 87 77 77 78 86 86 86 88 90 91 92 92 94 93 93 94 91 88 87 88 87 89 85 80 87 88 82 87 80 78 82 81 77 83 80 83 86 86 81 83 85 84 86
86 86 78 90 92 89 85 68 79 85 85 85 86 88 89 90 90 92 94 94 93 92 88 90 92 89 88 88 89 89 87 84 85 85 84 79 82 81 76 81 81 82 85 83 76 81 76 83 79
83 75 79 79 93 88 85 69 78 85 85 84 85 87 87 88 86 92 92 92 93 90 89 89 87 88 88 86 87 86 82 80 83 77 79 85 87 88 83 81 82 83 82 83 79 81 84 82 82
74 76 80 75 87 89 78 64 65 82 83 83 84 85 85 87 84 90 89 94 93 90 90 89 90 85 86 86 85 85 84 74 79 77 77 83 86 88 85 80 86 86 83 81 83 82 80 76 78
84 82 79 82 85 87 77 68 70 82 84 81 81 77 82 84 89 87 88 92 90 90 88 87 86 84 85 85 84 79 83 83 82 82 83 80 78 87 86 84 87 80 79 79 85 85 82 83 82
83 82 82 79 82 80 72 69 71 79 81 81 82 76 77 83 84 86 90 92 91 87 86 85 85 84 85 85 84 82 85 84 80 80 84 82 83 87 87 81 85 81 81 84 86 83 80 82 83
82 81 82 77 71 80 79 69 68 79 83 84 83 80 79 82 81 85 86 86 88 82 86 85 84 83 84 86 85 82 74 74 72 73 81 87 85 87 85 84 85 82 83 83 85 83 77 80 83
77 87 87 81 78 72 86 68 76 80 75 77 78 79 79 83 82 82 86 85 87 79 88 85 85 83 84 85 85 84 83 77 81 84 82 86 87 85 84 87 86 82 77 75 83 87 82 81 79
80 89 86 81 79 79 79 74 76 76 69 75 77 80 83 85 85 85 88 87 87 86 89 86 84 83 83 84 84 83 83 78 77 80 77 81 84 86 86 85 87 83 76 77 81 85 84 82 80
88 85 84 83 78 68 76 76 69 67 62 69 80 82 78 85 86 88 88 87 86 86 90 86 83 82 84 83 85 83 82 72 70 76 75 78 84 86 84 86 85 83 76 79 81 86 86 83 83
84 78 67 64 65 65 80 76 71 69 66 64 83 82 76 80 82 87 85 86 86 84 87 86 83 81 83 83 84 83 83 83 76 77 78 83 79 85 83 85 84 81 83 81 85 86 84 85 83
79 78 68 56 61 67 79 71 71 79 72 71 88 88 88 86 86 78 88 87 84 84 85 86 83 81 83 83 83 83 84 81 83 75 81 78 75 77 85 85 85 86 85 86 85 84 83 84 84
78 73 83 75 77 71 73 73 79 80 79 81 79 77 72 70 68 72 86 88 79 86 85 86 83 83 84 85 84 83 83 83 86 85 86 81 76 81 82 84 85 85 83 85 83 80 82 83 82
77 84 71 74 59 57 66 66 67 72 72 74 73 70 68 65 65 65 69 76 76 86 89 90 86 84 85 86 86 86 85 85 85 85 85 88 76 75 75 73 81 85 83 83 83 82 80 80 81
76 71 75 77 74 64 57 58 78 72 73 69 69 67 63 62 61 62 63 66 70 74 76 71 87 86 86 87 86 85 86 86 85 85 87 87 89 76 73 72 72 79 85 85 83 81 81 82 82
82 77 77 68 65 72 56 53 75 72 70 67 66 67 64 59 60 61 60 60 61 66 70 68 73 73 88 88 86 86 86 86 86 85 86 87 85 86 78 74 72 80 83 82 83 82 84 81 82
MSLP
1009.80 1009.44 1008.95 1008.49 1008.83 1007.70 1008.03 1009.53 1009.24 1006.82 1004.91 1004.16 1004.20 1005.06 1006.47 1006.75 1007.43 1009.97 1011.27 1012.39 1013.30 1014.41 1015.46 1015.95 1016.39 1016.67 1016.87 1016.96 1017.08 1017.22 1017.35 1017.47 1017.56 1017.58 1017.61 1017.64 1017.73 1017.82 1017.85 1017.82 1017.95 1018.00 1017.92 1017.88 1017.96 1018.05 1018.23 1018.40 1018.41
1008.63 1008.03 1007.88 1007.81 1008.05 1007.59 1008.05 1009.56 1009.42 1007.98 1006.46 1004.79 1005.38 1005.92 1006.61 1007.65 1008.19 1009.88 1011.31 1012.47 1013.05 1014.35 1015.05 1015.94 1016.58 1016.80 1017.03 1017.21 1017.36 1017.48 1017.61 1017.79 1017.84 1017.91 1017.91 1017.90 1017.99 1018.13 1018.13 1018.20 1018.20 1018.22 1018.17 1018.14 1018.20 1018.39 1018.59 1018.72 1018.71
1009.11 1007.96 1008.23 1007.86 1006.84 1007.71 1008.92 1009.76 1009.41 1008.16 1006.79 1005.63 1006.50 1007.08 1007.38 1008.28 1009.14 1009.84 1011.46 1012.01 1012.96 1013.91 1015.03 1016.32 1016.76 1017.02 1017.24 1017.50 1017.73 1017.79 1017.93 1018.05 1018.15 1018.19 1018.20 1018.22 1018.19 1018.28 1018.43 1018.45 1018.45 1018.49 1018.54 1018.58 1018.68 1018.71 1018.88 1019.03 1019.04
1008.37 1008.30 1008.32 1008.18 1007.35 1007.72 1008.45 1009.83 1009.42 1008.55 1007.28 1007.43 1006.88 1007.80 1007.93 1008.44 1009.35 1010.31 1010.98 1011.99 1012.77 1014.19 1015.51 1016.59 1016.93 1017.25 1017.54 1017.80 1017.97 1018.06 1018.15 1018.25 1018.32 1018.41 1018.40 1018.46 1018.58 1018.56 1018.66 1018.66 1018.72 1018.76 1018.84 1018.92 1019.00 1019.15 1019.19 1019.32 1019.26
1008.08 1008.32 1008.11 1007.60 1007.73 1008.37 1009.29 1010.13 1009.91 1008.90 1008.14 1008.09 1007.78 1008.32 1008.58 1009.10 1009.97 1010.49 1011.04 1012.07 1013.33 1014.72 1015.97 1016.72 1017.16 1017.41 1017.70 1018.03 1018.26 1018.38 1018.40 1018.54 1018.58 1018.58 1018.66 1018.71 1018.74 1018.78 1018.85 1018.97 1019.00 1018.99 1019.04 1019.07 1019.23 1019.38 1019.52 1019.60 1019.50
1008.24 1008.16 1007.77 1007.69 1008.25 1009.05 1010.07 1010.52 1010.03 1009.03 1008.84 1008.44 1008.22 1008.50 1009.20 1009.64 1010.19 1010.32 1011.26 1012.46 1013.30 1014.46 1015.71 1016.78 1017.42 1017.76 1017.94 1018.21 1018.44 1018.59 1018.70 1018.77 1018.82 1018.78 1018.84 1018.94 1019.08 1019.05 1019.16 1019.14 1019.16 1019.22 1019.28 1019.30 1019.41 1019.61 1019.73 1019.81 1019.69
1007.53 1007.53 1007.24 1007.50 1007.95 1008.76 1009.89 1010.33 1009.41 1008.38 1008.29 1008.32 1008.51 1008.79 1009.45 1009.89 1010.12 1010.51 1011.87 1012.49 1013.29 1014.08 1015.55 1016.68 1017.28 1017.84 1018.14 1018.38 1018.59 1018.75 1018.82 1018.88 1018.94 1018.93 1019.00 1019.11 1019.21 1019.28 1019.39 1019.46 1019.43 1019.43 1019.55 1019.68 1019.80 1019.86 1019.91 1019.86 1019.80
1006.27 1007.02 1006.81 1006.70 1006.97 1008.34 1009.38 1009.43 1009.03 1008.08 1008.61 1007.72 1007.98 1008.68 1009.09 1009.80 1009.91 1010.45 1011.43 1012.79 1013.47 1014.15 1014.91 1015.76 1016.71 1017.46 1017.99 1018.44 1018.73 1018.86 1018.90 1018.86 1018.96 1019.21 1019.16 1019.21 1019.31 1019.53 1019.72 1019.80 1019.73 1019.74 1019.85 1019.91 1019.92 1019.99 1019.95 1019.90 1019.93
1005.31 1005.88 1005.51 1005.67 1005.86 1007.44 1008.48 1008.43 1008.37 1007.99 1008.15 1008.40 1007.97 1008.51 1009.05 1009.72 1009.77 1010.59 1011.56 1013.52 1014.42 1014.48 1014.54 1014.79 1016.21 1017.30 1018.05 1018.34 1018.66 1018.92 1018.98 1018.94 1019.01 1019.12 1019.19 1019.37 1019.19 1019.55 1019.88 1020.03 1020.14 1020.22 1020.18 1020.18 1020.23 1020.37 1020.28 1020.09 1019.91
1005.92 1005.76 1004.28 1004.50 1005.57 1006.71 1007.63 1007.73 1007.70 1007.63 1007.99 1008.11 1008.49 1008.73 1009.46 1009.62 1009.79 1010.60 1011.66 1013.32 1013.99 1014.23 1014.46 1015.04 1016.03 1016.88 1017.43 1017.56 1018.44 1018.47 1018.88 1018.87 1018.63 1018.76 1018.75 1019.40 1018.93 1019.28 1019.76 1020.21 1020.42 1020.46 1020.49 1020.58 1020.66 1020.33 1020.37 1020.28 1020.07
1005.20 1005.73 1003.58 1004.05 1005.03 1006.02 1006.75 1007.38 1007.63 1007.87 1008.12 1007.91 1008.36 1008.81 1009.55 1009.71 1009.90 1010.43 1011.22 1012.16 1012.95 1013.81 1014.58 1015.83 1016.27 1016.91 1017.23 1017.28 1017.85 1018.17 1018.78 1018.62 1018.54 1018.58 1018.81 1018.89 1018.92 1019.35 1019.63 1020.20 1020.40 1020.25 1020.83 1021.01 1020.58 1020.72 1020.78 1020.18 1019.82
1004.56 1003.55 1002.92 1003.41 1004.57 1005.66 1006.52 1007.30 1007.29 1008.67 1008.64 1008.22 1008.43 1009.05 1009.37 1009.74 1010.11 1010.42 1011.06 1011.62 1012.42 1013.72 1014.80 1015.98 1016.82 1017.33 1017.33 1017.14 1017.27 1017.86 1017.97 1018.23 1018.69 1018.51 1018.51 1018.78 1018.93 1019.30 1020.20 1019.73 1020.00 1020.16 1021.02 1020.92 1020.70 1020.26 1019.83 1019.38 1019.38
1004.46 1004.12 1003.04 1002.55 1003.66 1004.71 1006.09 1006.49 1007.80 1008.81 1008.96 1008.69 1008.72 1009.38 1009.37 1009.70 1010.31 1010.44 1011.04 1011.73 1012.51 1013.69 1014.70 1016.02 1016.49 1017.36 1017.14 1017.52 1017.33 1017.78 1018.07 1018.25 1018.52 1018.72 1018.72 1018.73 1018.78 1019.05 1019.97 1020.04 1019.86 1020.29 1020.74 1020.86 1020.91 1020.33 1019.85 1019.69 1019.79
1002.88 1003.24 1002.11 1002.00 1002.49 1003.52 1004.76 1006.83 1007.50 1009.12 1008.68 1008.44 1008.90 1009.38 1009.49 1009.70 1010.38 1010.69 1011.14 1011.90 1012.70 1013.71 1014.94 1015.89 1016.53 1016.99 1016.99 1017.74 1017.66 1018.55 1018.36 1018.41 1018.51 1018.86 1018.91 1019.35 1019.06 1019.32 1019.40 1020.16 1019.82 1019.95 1020.67 1020.45 1020.48 1020.48 1020.18 1020.24 1019.99
1001.71 1002.40 1001.49 1001.46 1001.92 1003.46 1004.79 1006.30 1007.27 1008.30 1008.37 1008.09 1008.70 1009.22 1009.43 1009.76 1010.38 1010.99 1011.22 1011.99 1012.97 1013.92 1014.72 1015.75 1016.55 1017.01 1017.34 1017.35 1018.05 1018.43 1018.47 1018.43 1018.58 1018.67 1019.59 1019.68 1019.43 1020.15 1019.88 1019.86 1019.94 1019.87 1019.85 1020.21 1020.76 1020.58 1020.22 1020.27 1020.41
1001.53 1001.46 1000.89 1000.64 1001.23 1002.86 1004.41 1006.19 1006.92 1007.51 1007.79 1007.78 1008.33 1008.90 1009.43 1009.94 1010.56 1011.15 1011.55 1012.15 1013.23 1014.16 1014.93 1015.44 1015.97 1017.01 1017.42 1017.43 1017.70 1018.02 1018.27 1018.90 1018.84 1018.87 1018.90 1018.96 1019.71 1020.20 1019.95 1020.31 1020.05 1019.80 1019.80 1020.42 1020.91 1020.74 1020.72 1020.73 1020.66
1001.55 1000.76 1000.36 1000.59 1000.92 1002.35 1003.54 1006.14 1007.35 1007.80 1007.64 1007.76 1008.34 1008.73 1009.41 1010.18 1010.85 1011.31 1011.89 1012.49 1013.42 1014.48 1015.12 1015.56 1015.86 1016.59 1017.35 1017.66 1017.76 1018.20 1018.49 1018.74 1019.09 1019.65 1019.70 1019.18 1019.41 1019.79 1019.85 1019.86 1019.74 1019.76 1020.02 1020.44 1020.38 1020.46 1020.57 1020.88 1020.93
1000.70 1000.57 999.93 1001.00 1001.26 1001.44 1003.81 1006.30 1006.51 1007.15 1007.63 1007.96 1008.61 1009.21 1009.61 1010.19 1011.34 1011.37 1012.11 1012.41 1013.45 1014.53 1015.36 1015.80 1016.05 1016.76 1017.38 1017.66 1017.86 1018.06 1018.65 1019.71 1019.14 1019.62 1019.90 1019.54 1019.38 1019.36 1019.62 1019.85 1019.62 1019.67 1020.17 1020.45 1020.68 1020.63 1020.69 1021.19 1021.02
1000.06 999.84 999.74 1000.77 1001.32 1001.47 1003.79 1006.29 1006.60 1007.09 1007.78 1008.44 1008.95 1009.71 1009.80 1010.25 1011.02 1011.47 1012.17 1012.58 1013.46 1014.40 1015.47 1016.03 1016.30 1016.98 1017.58 1017.92 1017.93 1018.26 1018.58 1018.97 1018.97 1018.91 1019.11 1019.45 1019.60 1019.32 1019.46 1019.59 1019.49 1020.38 1020.62 1020.25 1020.59 1020.61 1020.68 1020.75 1020.78
999.96 999.26 999.27 1002.04 1001.48 1002.28 1004.49 1006.26 1007.23 1007.14 1007.59 1008.61 1008.78 1009.92 1010.17 1010.41 1010.99 1011.64 1012.00 1012.64 1013.49 1014.26 1015.20 1016.07 1016.53 1017.16 1017.50 1017.77 1017.70 1017.97 1018.26 1018.91 1019.10 1019.14 1018.96 1019.07 1019.28 1019.27 1019.58 1019.72 1019.56 1020.30 1020.76 1020.30 1020.56 1020.78 1020.85 1020.82 1020.58
999.68 999.01 998.82 1000.72 1003.09 1002.92 1002.96 1004.98 1006.52 1006.53 1006.99 1007.78 1008.79 1009.75 1010.39 1010.32 1010.90 1011.46 1011.90 1012.66 1013.51 1014.37 1014.97 1015.75 1016.43 1017.02 1017.40 1017.38 1017.47 1018.00 1018.82 1019.27 1019.32 1019.58 1019.22 1018.73 1019.08 1019.14 1019.59 1019.66 1019.66 1019.93 1020.22 1020.43 1020.48 1020.70 1021.33 1020.79 1020.57
999.25 998.92 998.55 1000.46 1001.24 1001.03 1001.18 1002.46 1003.93 1005.23 1006.57 1007.68 1008.64 1009.14 1009.72 1009.96 1010.45 1011.11 1011.68 1012.49 1013.27 1014.29 1014.76 1015.50 1016.26 1016.89 1017.24 1017.42 1017.39 1017.64 1018.58 1019.35 1019.11 1018.91 1018.77 1018.74 1018.78 1019.00 1019.24 1019.34 1019.43 1020.08 1020.62 1020.82 1020.50 1020.20 1020.56 1020.74 1020.82
999.27 998.85 998.83 999.72 1000.01 1000.02 1000.35 1001.52 1003.59 1004.51 1006.53 1007.21 1008.44 1008.60 1009.23 1009.72 1010.11 1010.42 1010.57 1011.61 1012.84 1013.47 1014.16 1015.08 1015.93 1016.62 1016.94 1017.23 1017.44 1017.67 1018.70 1018.76 1019.31 1019.35 1019.26 1019.17 1018.83 1018.84 1019.17 1019.33 1019.40 1020.04 1020.83 1020.68 1020.64 1020.47 1020.64 1020.87 1020.91
999.64 999.23 999.15 999.52 999.93 999.58 999.83 1000.97 1003.43 1005.70 1007.40 1008.60 1008.34 1009.28 1009.30 1009.02 1009.68 1010.40 1010.84 1011.49 1012.29 1013.25 1013.72 1014.71 1015.67 1016.23 1016.59 1017.02 1017.34 1017.69 1018.54 1019.68 1020.13 1020.21 1019.52 1019.46 1019.10 1018.96 1019.18 1019.38 1019.64 1020.15 1020.68 1020.99 1020.41 1020.22 1020.44 1020.73 1020.81
999.99 999.53 999.34 999.83 999.63 999.25 999.85 1000.82 1002.64 1006.12 1007.57 1009.32 1007.72 1008.42 1009.39 1009.51 1009.50 1010.15 1010.89 1011.56 1012.22 1012.79 1013.38 1014.34 1015.32 1015.90 1016.27 1016.68 1016.97 1017.25 1017.96 1019.06 1019.77 1019.99 1019.70 1019.27 1019.16 1019.05 1019.14 1019.24 1019.74 1020.34 1020.60 1020.69 1020.24 1020.28 1020.62 1020.68 1020.82
999.92 999.57 998.98 999.34 999.45 999.63 1000.02 1000.48 1003.16 1004.68 1006.40 1007.54 1007.04 1008.03 1008.79 1008.97 1010.27 1010.53 1010.65 1011.48 1012.29 1012.89 1013.21 1013.81 1014.73 1015.50 1015.85 1016.14 1016.43 1016.82 1017.20 1018.23 1018.66 1019.01 1019.14 1019.20 1019.01 1019.31 1019.33 1019.53 1019.64 1019.91 1020.16 1020.20 1020.36 1020.66 1020.61 1020.59 1020.77
999.70 999.63 999.36 998.87 998.91 999.25 999.83 1002.47 1003.77 1005.22 1006.64 1007.39 1008.43 1009.31 1011.24 1011.39 1012.73 1012.72 1011.06 1011.70 1012.64 1012.51 1013.17 1013.49 1014.17 1014.81 1015.32 1015.61 1015.95 1016.32 1016.62 1017.11 1017.58 1018.08 1018.49 1018.94 1018.95 1019.13 1018.81 1019.17 1019.26 1019.62 1020.06 1020.03 1020.39 1020.72 1020.61 1020.71 1020.86
1000.19 1000.28 999.92 999.27 999.52 999.67 1000.66 1002.09 1003.56 1005.63 1007.67 1008.73 1009.79 1011.23 1012.38 1013.41 1013.63 1013.66 1013.20 1013.11 1012.76 1012.77 1013.12 1013.23 1013.91 1014.21 1014.70 1015.10 1015.43 1015.77 1016.08 1016.39 1016.78 1017.25 1017.40 1017.72 1018.61 1018.95 1020.29 1020.32 1019.53 1019.20 1019.53 1019.85 1020.23 1020.61 1020.52 1020.83 1020.94
1000.67 1001.29 1000.36 999.96 999.93 999.98 1001.94 1004.82 1004.61 1006.77 1008.61 1010.45 1011.59 1013.11 1014.45 1015.21 1015.76 1014.18 1014.90 1015.34 1015.52 1014.05 1013.89 1015.00 1013.63 1014.02 1014.33 1014.72 1014.98 1015.21 1015.58 1015.89 1016.24 1016.57 1016.72 1017.25 1017.69 1017.71 1019.58 1019.49 1019.06 1019.60 1019.46 1019.46 1020.02 1020.55 1020.68 1020.73 1020.67
1000.74 1000.82 1000.79 1000.34 1000.25 1000.31 1003.14 1007.21 1008.15 1009.12 1010.69 1012.35 1013.58 1014.78 1015.66 1016.34 1016.69 1016.64 1016.38 1017.08 1016.91 1015.82 1016.56 1016.63 1016.15 1015.60 1013.94 1014.25 1014.76 1015.03 1015.21 1015.54 1016.03 1016.47 1016.71 1016.97 1017.41 1017.54 1018.31 1018.52 1019.32 1019.54 1019.18 1019.46 1019.97 1020.41 1020.29 1020.44 1020.48
Wind_Speed
9 11 10 7 5 7 3 7 3 10 15 11 18 16 17 16 6 14 20 21 21 19 16 15 13 13 11 11 11 11 11 10 10 11 11 12 10 10 10 11 11 12 12 14 15 15 16 14 14
13 11 5 3 6 3 4 7 5 5 10 15 22 20 19 23 26 25 20 23 23 19 17 15 12 13 12 11 12 11 11 10 10 11 10 12 12 12 10 11 11 11 13 14 15 15 15 14 13
13 6 3 4 7 3 6 6 4 3 11 12 15 11 8 22 25 21 23 25 23 19 17 15 13 12 12 11 12 12 12 11 10 11 12 11 11 13 11 11 12 13 14 13 14 15 14 14 10
6 3 5 4 9 4 12 11 4 2 7 12 19 13 22 20 24 23 24 25 22 22 18 15 14 13 13 12 11 12 11 11 12 11 11 11 11 12 12 11 12 13 14 13 15 14 13 12 9
3 3 4 2 9 13 16 11 6 3 7 13 13 20 21 20 24 22 23 24 21 20 18 15 13 13 13 12 11 11 10 11 12 11 11 11 11 12 13 13 14 13 12 12 13 13 14 11 6
2 3 3 2 12 13 11 9 6 6 14 16 24 20 15 24 22 21 23 21 21 20 18 15 13 14 12 13 12 11 11 11 10 11 11 11 11 11 13 13 13 13 14 14 14 13 13 10 5
10 4 2 4 12 9 8 10 10 9 16 16 16 19 13 22 19 21 26 19 14 21 18 14 14 13 14 12 12 10 12 10 10 10 11 11 11 13 13 13 13 14 14 15 14 13 12 9 4
3 5 2 2 11 15 13 13 11 3 15 11 11 16 20 22 20 20 18 15 18 16 18 16 14 14 12 10 11 11 11 10 9 9 8 12 14 14 15 10 12 14 14 14 13 13 11 8 5
4 3 3 0 14 13 15 15 13 9 9 9 4 21 24 23 21 21 18 22 9 6 13 17 16 13 10 10 9 10 10 10 10 9 8 10 8 10 10 11 12 12 12 12 12 11 9 10 10
6 3 8 12 20 16 15 12 14 11 3 8 12 24 23 22 20 19 17 22 20 10 14 17 17 16 12 9 10 9 8 6 4 7 4 4 5 8 10 10 11 10 9 10 11 13 11 10 6
10 5 6 13 18 16 15 10 4 5 10 15 23 26 24 22 17 18 17 19 15 15 18 13 10 11 8 9 8 6 5 4 3 3 9 6 7 8 7 5 5 5 6 3 5 7 5 6 5
4 10 9 13 18 16 15 11 8 14 6 7 23 24 22 21 16 18 15 15 16 18 18 18 15 10 5 4 5 7 6 6 3 3 2 3 2 5 4 4 4 6 8 4 6 5 6 2 6
10 18 13 10 22 21 16 14 10 7 3 10 20 23 22 19 15 16 15 13 16 19 17 17 14 6 3 7 3 5 4 8 6 3 2 2 5 3 7 5 2 3 6 4 2 1 2 4 6
11 14 8 11 13 11 14 16 15 3 8 14 21 23 21 19 18 11 15 14 15 10 18 16 13 5 4 6 7 3 1 0 4 3 4 7 2 2 5 8 1 5 7 4 2 4 3 2 5
12 21 10 9 12 12 16 12 9 18 17 19 24 22 21 17 19 13 13 15 15 10 15 15 13 8 4 5 9 4 2 3 4 1 16 8 6 8 3 3 3 2 3 6 2 5 2 5 4
14 12 15 18 14 15 14 9 15 17 16 19 25 22 19 17 14 14 9 14 15 10 8 11 16 14 10 4 2 2 5 5 4 2 7 9 4 8 7 1 1 4 2 5 4 0 5 5 3
13 14 20 1 15 18 11 10 14 13 18 19 20 20 17 15 10 15 11 12 14 14 8 7 11 13 10 6 4 3 5 2 3 2 6 7 6 5 4 3 2 2 1 5 2 3 1 4 2
17 20 13 20 17 17 14 10 13 16 16 17 16 17 16 18 15 9 10 15 15 14 9 7 8 11 8 5 3 5 6 7 6 7 9 1 2 3 1 4 4 1 3 4 2 2 2 6 5
20 18 18 17 11 16 16 18 21 15 16 17 17 6 12 12 20 7 10 14 14 15 12 8 7 10 7 5 5 3 5 4 3 4 10 9 7 4 2 3 1 6 2 4 3 2 2 2 2
22 21 16 12 15 21 20 15 12 15 20 21 20 11 8 8 10 13 15 16 13 16 14 10 8 10 7 6 5 4 4 4 3 2 5 7 6 4 2 3 3 9 4 4 2 2 3 2 2
20 19 11 17 7 19 17 18 22 25 19 21 18 18 16 15 12 19 12 13 13 6 15 13 10 10 8 7 4 5 4 3 3 1 6 7 8 5 5 6 1 5 1 1 2 2 6 2 1
17 19 20 22 21 11 17 11 21 23 21 20 20 21 20 18 15 14 21 19 17 13 14 14 11 12 9 7 5 5 5 8 5 6 3 6 6 5 6 5 4 6 4 5 3 2 2 2 4
16 18 15 9 16 12 18 8 12 9 22 22 21 24 21 19 18 18 19 16 18 13 15 15 12 12 10 8 5 3 3 0 2 2 5 5 5 6 5 5 3 5 5 5 2 1 2 3 2
18 16 14 5 11 12 16 15 12 9 11 12 20 18 6 16 20 19 15 18 15 14 16 16 14 12 10 10 6 5 4 11 5 5 4 4 5 4 4 5 3 4 4 1 3 2 1 3 4
18 15 8 9 11 9 17 14 12 15 9 8 19 24 24 26 9 19 16 19 18 14 17 17 16 14 12 12 9 8 7 4 9 3 5 6 1 4 8 5 4 4 3 6 2 1 3 1 3
19 18 10 16 13 13 18 13 13 23 30 36 15 15 18 24 20 8 18 15 13 14 13 19 19 15 13 14 11 9 8 5 9 13 7 2 2 2 1 4 6 4 6 4 3 3 3 4 3
19 19 19 18 20 16 11 13 17 17 12 13 14 22 21 21 16 4 22 17 8 18 14 19 20 17 16 14 10 10 8 9 5 7 6 7 6 4 1 4 7 6 6 6 5 4 5 1 3
3 13 17 13 9 18 12 19 15 17 14 12 13 16 17 16 15 15 15 9 16 17 15 18 19 18 16 15 13 11 11 11 7 5 6 3 8 5 8 10 7 7 8 6 5 4 5 6 6
9 13 11 16 15 15 6 7 13 14 13 10 13 17 16 15 14 5 14 12 9 11 10 14 15 17 14 13 13 13 12 12 9 6 4 5 3 9 12 8 5 6 6 6 5 5 4 6 5
14 14 16 14 20 14 9 4 12 14 14 10 10 15 18 16 13 13 12 9 7 15 14 9 13 14 12 13 11 13 12 11 11 9 7 6 6 6 13 10 13 14 7 6 6 7 5 7 6
Wind_Direction
208 218 228 244 250 225 103 100 289 342 63 93 72 77 78 47 139 111 134 125 131 128 131 129 121 120 113 107 102 95 91 88 91 90 86 86 82 94 90 85 86 95 90 95 93 91 97 93 95
219 213 274 269 239 255 57 97 87 317 319 77 67 62 62 82 101 116 124 138 132 132 131 129 117 114 111 100 90 101 102 100 93 91 94 86 95 96 92 94 90 92 91 89 92 95 96 94 93
252 231 274 259 254 150 140 118 202 326 277 107 88 58 60 110 123 115 136 136 128 134 118 122 119 116 109 105 104 100 99 104 105 100 97 95 88 97 97 101 100 93 92 94 89 94 100 102 106
235 353 271 247 281 26 133 151 271 308 37 54 112 76 109 120 109 124 135 135 137 117 118 121 121 118 117 110 105 103 102 104 102 105 100 100 96 98 101 96 101 94 95 97 103 99 101 100 102
241 235 263 273 65 87 108 121 201 195 80 59 96 123 111 105 121 142 137 122 114 112 124 126 123 121 116 108 106 102 104 103 93 96 99 95 93 96 94 93 95 93 98 106 115 105 102 102 102
309 259 274 71 94 103 114 159 183 159 93 116 114 117 110 121 142 145 120 120 129 128 119 129 122 115 115 112 111 105 102 101 106 105 100 100 104 101 99 104 96 97 106 105 117 115 109 112 109
239 263 265 117 110 127 140 173 173 159 136 123 123 125 136 138 152 135 124 131 136 127 121 138 128 118 111 114 112 117 116 112 115 118 116 112 107 102 101 95 101 106 112 112 117 118 118 122 136
232 264 44 146 119 122 140 169 196 168 116 145 107 139 150 146 161 126 125 120 117 123 143 134 136 137 130 126 128 125 128 135 135 119 133 130 114 111 112 110 102 109 112 117 121 125 131 145 178
178 283 354 211 130 134 160 180 179 177 212 61 193 148 146 155 159 134 122 107 68 198 154 145 116 109 123 136 139 139 151 156 143 140 136 154 133 120 115 103 115 116 123 133 132 135 158 170 180
13 253 61 88 110 136 160 157 167 145 171 132 113 135 142 162 161 140 145 134 159 153 162 112 133 149 142 142 159 160 152 174 189 137 102 236 142 127 120 128 131 135 140 145 149 163 167 193 183
166 261 80 110 129 131 134 145 147 90 155 138 141 145 157 159 162 150 148 134 136 173 99 95 87 109 175 139 178 155 160 185 128 48 175 223 126 137 146 142 150 160 157 348 171 186 176 216 253
264 250 105 116 139 154 150 172 158 150 98 134 144 151 160 161 164 153 153 152 145 116 123 130 119 123 225 202 136 181 149 127 121 212 180 167 170 94 297 165 146 170 113 228 261 236 200 203 102
105 261 219 124 150 157 166 168 115 111 103 154 147 160 163 163 164 157 153 132 127 130 129 123 122 155 254 76 56 67 120 122 173 100 360 115 108 118 124 12 206 85 149 174 135 293 257 25 53
177 300 176 192 146 146 160 128 136 217 205 157 151 164 168 162 160 155 145 140 127 134 119 119 113 117 104 115 76 74 89 227 121 182 81 21 120 288 114 183 194 123 147 117 117 249 94 32 83
222 195 215 217 144 141 127 151 148 179 192 170 159 168 171 166 156 165 150 132 128 157 121 121 126 139 107 121 129 171 203 103 106 136 116 257 32 51 5 22 53 82 97 134 77 268 113 76 43
242 236 222 208 177 153 155 157 142 158 160 169 159 169 164 169 155 144 157 136 129 152 119 153 148 154 150 158 160 143 86 167 154 339 123 128 207 126 230 283 288 190 115 113 197 286 230 143 140
208 227 231 100 171 153 174 134 163 173 159 164 161 164 159 172 163 148 150 143 142 143 158 188 133 143 144 157 168 107 118 80 44 177 350 150 162 161 231 177 184 15 2 101 198 267 147 53 355
207 229 191 172 215 192 135 123 287 166 165 155 158 167 161 178 144 178 161 148 146 141 152 187 139 127 141 168 194 184 122 112 253 135 205 302 28 161 83 325 143 168 29 110 191 123 58 149 217
223 211 247 167 208 214 149 144 181 158 155 159 168 162 164 177 158 196 152 142 153 144 156 178 140 135 135 168 200 179 155 169 175 158 176 126 214 185 218 212 196 66 204 147 202 203 221 241 187
255 259 224 164 319 104 138 145 170 187 175 177 177 160 165 191 165 180 162 157 166 149 156 164 150 152 168 191 230 177 153 165 101 50 284 137 168 174 149 316 202 132 189 104 53 93 329 292 98
239 250 208 153 223 221 167 153 192 188 175 174 181 172 178 197 180 174 180 147 154 143 160 162 167 160 198 213 217 108 12 56 36 357 222 145 172 182 171 208 272 144 319 142 209 106 255 335 82
234 242 259 167 192 216 209 163 166 173 179 159 177 181 193 201 186 206 165 165 172 162 171 159 169 166 203 236 199 214 193 168 191 183 165 148 167 181 165 206 163 109 66 337 202 141 11 321 322
240 227 259 198 218 210 203 219 165 130 159 166 184 184 191 183 189 200 180 171 158 173 166 160 169 171 189 222 256 159 142 284 34 305 92 164 162 167 191 177 173 131 112 268 337 107 68 354 342
240 281 229 236 258 222 243 213 132 147 166 256 177 186 193 204 180 194 185 170 171 188 164 158 170 177 182 209 206 234 157 126 271 263 180 225 176 163 176 182 182 89 121 205 152 248 74 6 333
229 244 185 221 226 238 230 224 122 119 115 304 215 162 175 222 203 182 187 168 187 165 169 159 169 179 180 196 201 218 201 193 123 252 209 245 318 178 173 162 145 161 178 231 185 195 4 298 321
216 228 208 200 216 220 246 207 125 148 167 197 182 179 196 173 190 158 192 178 172 189 180 163 167 179 188 184 196 201 230 184 158 193 216 116 310 355 277 170 171 205 175 243 158 209 202 227 232
203 228 250 230 216 221 143 87 108 107 81 79 54 29 48 27 30 23 213 168 197 186 194 169 169 175 183 193 192 194 207 225 208 200 189 158 177 149 78 206 175 206 188 206 180 230 225 173 249
311 255 240 248 269 267 159 162 149 145 133 107 74 59 48 36 39 48 23 24 168 217 200 173 172 174 182 192 193 197 198 213 222 248 177 121 148 175 89 338 237 202 178 196 186 221 227 166 217
165 239 272 272 237 245 141 24 82 96 101 80 68 70 59 52 34 43 50 15 33 33 30 355 178 172 182 196 192 198 199 201 208 220 199 177 183 139 138 192 287 278 188 186 194 236 268 222 207
242 233 227 243 245 270 97 251 80 82 77 71 57 75 82 66 53 41 46 14 21 46 37 22 10 10 185 192 198 200 194 199 193 198 208 185 183 196 164 180 219 207 194 186 209 223 238 194 211